Tracking 28514 objects as of 23-Feb-2024
HD Live streaming from Space Station
objects crossing your sky now

STARLINK-5796

Track STARLINK-5796 now!
10-day predictions
STARLINK-5796 is classified as:


NORAD ID: 55916
Int'l Code: 2023-037C
Perigee: 577.1 km
Apogee: 581.2 km
Inclination: 70.0 °
Period: 96.1 minutes
Semi major axis: 6950 km
RCS: Unknown
Launch date: March 17, 2023
Source: United States (US)
Launch site: AIR FORCE WESTERN TEST RANGE (AFWTR)
Your satellite tracking list
Your tracking list is empty




NASA's NSSDC Master Catalog

Two Line Element Set (TLE):
1 55916U 23037C   24054.31188306  .00001472  00000-0  13110-3 0  9999
2 55916  70.0010  23.9465 0002919 268.5652  91.5172 14.98345665 52171
Source of the keplerian elements: AFSPC